CUTE-1 (CO-55)

Last updated on Sat Sep 05 2026 00:03:17 GMT+0000 (Coordinated Universal Time)

1 27844U 03031E 26247.48640235 .00000142 00000+0 80385-4 0 9999 2 27844 98.6770 255.0598 0008765 321.2746 38.7804 14.24376449202962
UTC large
Height (km)
Speed (km/s)
/
Latitude / Longitude
Inclination (degrees)
Orbital Period (minutes)
Azimuth
Elevation
Range (km)
Doppler Factor

Next 0 passes for location: London (51.5072 / 0.1276)

No passes found over London.
CUTE-1 (CO-55)